| time (UTC) | temp F | wind direction | speed knots | gust knots | rain 1hr in | rain 24hr in | rain mn in | humidity % | barometer mb |
| 20260503195328 | 60 | 27 | 9.6 | 12.2 | 0.00 | 0.00 | 0.00 | 33 | 1013.0 |
| 20260503193828 | 59 | 352 | 7.0 | 13.9 | 0.00 | 0.00 | 0.00 | 34 | 1013.3 |
| 20260503192328 | 59 | 25 | 2.6 | 9.6 | 0.00 | 0.00 | 0.00 | 33 | 1013.6 |
| 20260503190828 | 59 | 28 | 6.1 | 11.3 | 0.00 | 0.00 | 0.00 | 35 | 1013.7 |
| 20260503185328 | 58 | 5 | 9.6 | 14.8 | 0.00 | 0.00 | 0.00 | 35 | 1013.8 |
| 20260503183828 | 58 | 134 | 4.3 | 10.4 | 0.00 | 0.00 | 0.00 | 36 | 1014.0 |
| 20260503182328 | 57 | 46 | 5.2 | 13.0 | 0.00 | 0.00 | 0.00 | 36 | 1014.2 |
| 20260503180828 | 58 | 163 | 1.7 | 10.4 | 0.00 | 0.00 | 0.00 | 36 | 1014.3 |
| 20260503175328 | 57 | 293 | 0.9 | 12.2 | 0.00 | 0.00 | 0.00 | 38 | 1014.3 |
| 20260503173828 | 56 | 125 | 3.5 | 13.0 | 0.00 | 0.00 | 0.00 | 37 | 1014.6 |
| 20260503172328 | 56 | 51 | 1.7 | 15.6 | 0.00 | 0.00 | 0.00 | 37 | 1014.6 |
| 20260503170828 | 56 | 50 | 6.1 | 13.9 | 0.00 | 0.00 | 0.00 | 36 | 1014.8 |
| 20260503150828 | 52 | 136 | 4.3 | 9.6 | 0.00 | 0.00 | 0.00 | 43 | 1016.0 |
| 20260503130829 | 46 | 42 | 5.2 | 11.3 | 0.00 | 0.00 | 0.00 | 56 | 1016.5 |
| 20260503080829 | 38 | 257 | 0.9 | 1.7 | 0.00 | 0.00 | 0.00 | 69 | 1014.8 |
| 20260503072329 | 39 | 168 | 1.7 | 1.7 | 0.00 | 0.00 | 0.00 | 66 | 1014.4 |
| 20260503070829 | 40 | 243 | 0.9 | 2.6 | 0.00 | 0.00 | 0.00 | 65 | 1014.3 |
| 20260503053830 | 41 | 268 | 0.9 | 2.6 | 0.00 | 0.00 | 0.00 | 64 | 1014.3 |
| 20260503052330 | 42 | 326 | 0.9 | 1.7 | 0.00 | 0.00 | 0.00 | 64 | 1014.1 |
| 20260503050830 | 42 | 25 | 0.0 | 1.7 | 0.00 | 0.00 | 0.00 | 62 | 1014.4 |
| 20260503045330 | 42 | 298 | 0.9 | 5.2 | 0.00 | 0.00 | 0.00 | 64 | 1014.5 |
| 20260503043830 | 42 | 245 | 1.7 | 1.7 | 0.00 | 0.00 | 0.00 | 68 | 1014.6 |
| 20260503042330 | 42 | 96 | 0.0 | 0.9 | 0.00 | 0.00 | 0.00 | 65 | 1014.6 |
| 20260503040830 | 43 | 280 | 0.0 | 1.7 | 0.00 | 0.00 | 0.00 | 63 | 1014.6 |
| 20260503035330 | 43 | 292 | 0.0 | 1.7 | 0.00 | 0.00 | 0.04 | 63 | 1014.7 |
| 20260503033830 | 43 | 159 | 0.0 | 0.9 | 0.00 | 0.00 | 0.04 | 63 | 1014.7 |
| 20260503032330 | 44 | 231 | 0.9 | 1.7 | 0.00 | 0.00 | 0.04 | 65 | 1014.8 |
| 20260503030830 | 44 | 11 | 1.7 | 1.7 | 0.00 | 0.00 | 0.04 | 64 | 1014.9 |
| 20260503025330 | 44 | 335 | 0.9 | 8.7 | 0.00 | 0.00 | 0.04 | 64 | 1014.9 |
| 20260503023830 | 44 | 27 | 1.7 | 4.3 | 0.00 | 0.00 | 0.04 | 66 | 1015.0 |
| 20260503022330 | 44 | 76 | 0.0 | 2.6 | 0.00 | 0.00 | 0.04 | 68 | 1015.1 |
| 20260503020830 | 44 | 240 | 0.0 | 0.9 | 0.00 | 0.00 | 0.04 | 67 | 1014.9 |
| 20260503015330 | 44 | 8 | 3.5 | 4.3 | 0.00 | 0.00 | 0.04 | 66 | 1014.9 |
| 20260503013830 | 45 | 323 | 0.0 | 3.5 | 0.00 | 0.00 | 0.04 | 65 | 1014.8 |
| 20260503012330 | 45 | 19 | 2.6 | 3.5 | 0.00 | 0.00 | 0.04 | 67 | 1014.6 |
| 20260503010830 | 45 | 259 | 0.0 | 1.7 | 0.00 | 0.00 | 0.04 | 66 | 1014.5 |
| 20260503005330 | 45 | 135 | 0.0 | 2.6 | 0.00 | 0.00 | 0.04 | 66 | 1014.4 |
| 20260503003830 | 45 | 277 | 0.9 | 2.6 | 0.00 | 0.00 | 0.04 | 66 | 1014.1 |
| 20260503002330 | 46 | 317 | 0.0 | 0.9 | 0.00 | 0.00 | 0.04 | 66 | 1014.1 |
| 20260503000830 | 46 | 300 | 0.9 | 3.5 | 0.00 | 0.00 | 0.04 | 64 | 1014.0 |
| 20260502235330 | 46 | 167 | 0.0 | 7.8 | 0.00 | 0.00 | 0.04 | 63 | 1014.0 |
| 20260502233830 | 47 | 18 | 1.7 | 8.7 | 0.00 | 0.00 | 0.04 | 61 | 1013.9 |
| 20260502232330 | 47 | 24 | 1.7 | 9.6 | 0.00 | 0.00 | 0.04 | 61 | 1013.8 |
| 20260502230830 | 48 | 18 | 4.3 | 10.4 | 0.00 | 0.00 | 0.04 | 62 | 1013.8 |
| 20260502225330 | 48 | 352 | 4.3 | 8.7 | 0.00 | 0.00 | 0.04 | 61 | 1013.6 |
| 20260502223831 | 48 | 60 | 5.2 | 7.0 | 0.00 | 0.00 | 0.04 | 58 | 1013.5 |
| 20260502222331 | 48 | 36 | 2.6 | 6.1 | 0.00 | 0.00 | 0.04 | 60 | 1013.3 |
| 20260502220831 | 49 | 356 | 1.7 | 7.8 | 0.00 | 0.00 | 0.04 | 58 | 1013.3 |
| 20260502215331 | 49 | 37 | 3.5 | 10.4 | 0.00 | 0.00 | 0.04 | 56 | 1013.2 |
| 20260502213831 | 49 | 34 | 2.6 | 9.6 | 0.00 | 0.00 | 0.04 | 55 | 1013.2 |
| 20260502212331 | 50 | 359 | 3.5 | 10.4 | 0.00 | 0.00 | 0.04 | 55 | 1013.0 |
| 20260502210831 | 50 | 53 | 6.1 | 10.4 | 0.00 | 0.00 | 0.04 | 59 | 1012.9 |
| 20260502205331 | 50 | 8 | 4.3 | 9.6 | 0.00 | 0.00 | 0.04 | 59 | 1012.7 |
| 20260502203831 | 51 | 21 | 3.5 | 11.3 | 0.00 | 0.00 | 0.04 | 55 | 1012.8 |
| 20260502202331 | 52 | 19 | 6.1 | 9.6 | 0.00 | 0.00 | 0.04 | 51 | 1012.6 |
| 20260502200831 | 52 | 216 | 0.0 | 5.2 | 0.00 | 0.00 | 0.04 | 49 | 1012.6 |